timestamp,wind_dir_avg,wind_spd_avg,wind_spd_max_dir,wind_spd_gust,battery_voltage,lat,long
2020-12-14 00:04:01+00:00,79.0,9.88,78.0,13.26,12.33,47.59359,-54.27349
2020-12-14 00:14:01+00:00,73.0,11.29,81.0,15.14,12.33,47.59359,-54.27349
2020-12-14 00:24:01+00:00,73.0,11.29,64.0,13.81,12.33,47.59359,-54.27349
2020-12-14 00:34:01+00:00,72.0,11.91,75.0,15.09,12.33,47.59359,-54.27349
2020-12-14 00:44:01+00:00,71.0,12.55,77.0,16.33,12.33,47.59359,-54.27349
2020-12-14 00:54:01+00:00,74.0,10.39,78.0,13.74,12.33,47.59359,-54.27349
2020-12-14 01:04:01+00:00,83.0,9.13,73.0,12.2,12.33,47.59359,-54.27349
2020-12-14 01:14:01+00:00,72.0,10.17,68.0,13.28,12.33,47.59359,-54.27349
2020-12-14 01:24:01+00:00,72.0,9.82,72.0,12.55,12.33,47.59359,-54.27349
2020-12-14 01:34:01+00:00,76.0,10.24,79.0,16.22,12.33,47.59359,-54.27349
2020-12-14 01:44:01+00:00,70.0,10.43,67.0,13.74,12.33,47.59359,-54.27349
2020-12-14 01:54:01+00:00,66.0,9.9,69.0,13.1,12.33,47.59359,-54.27349
2020-12-14 02:04:01+00:00,74.0,8.6,76.0,10.03,12.33,47.59359,-54.27349
2020-12-14 02:14:01+00:00,72.0,9.21,74.0,11.8,12.33,47.59359,-54.27349
2020-12-14 02:24:01+00:00,70.0,8.5,74.0,10.39,12.33,47.59359,-54.27349
2020-12-14 02:34:01+00:00,71.0,9.75,66.0,13.41,12.33,47.59359,-54.27349
2020-12-14 02:44:01+00:00,75.0,9.76,77.0,11.48,12.33,47.59359,-54.27349
2020-12-14 02:54:01+00:00,70.0,11.34,71.0,12.94,12.33,47.59359,-54.27349
2020-12-14 03:04:01+00:00,73.0,11.09,68.0,14.57,12.33,47.59359,-54.27349
2020-12-14 03:14:01+00:00,72.0,10.93,72.0,13.2,12.25,47.59359,-54.27349
2020-12-14 03:24:01+00:00,76.0,10.06,68.0,12.99,12.25,47.59359,-54.27349
2020-12-14 03:34:01+00:00,69.0,11.72,74.0,13.59,12.25,47.59359,-54.27349
2020-12-14 03:44:01+00:00,65.0,9.13,70.0,11.0,12.25,47.59359,-54.27349
2020-12-14 03:54:01+00:00,67.0,11.79,67.0,13.66,12.25,47.59359,-54.27349
2020-12-14 04:04:01+00:00,72.0,10.0,65.0,13.28,12.25,47.59359,-54.27349
2020-12-14 04:14:01+00:00,67.0,12.28,69.0,13.77,12.25,47.59359,-54.27349
2020-12-14 04:24:01+00:00,66.0,9.89,63.0,13.7,12.25,47.59359,-54.27349
2020-12-14 04:34:01+00:00,68.0,11.02,71.0,12.94,12.25,47.59359,-54.27349
2020-12-14 04:44:01+00:00,67.0,12.38,58.0,13.84,12.25,47.59359,-54.27349
2020-12-14 04:54:01+00:00,71.0,9.73,72.0,11.98,12.25,47.59359,-54.27349
2020-12-14 05:04:01+00:00,67.0,11.62,67.0,13.13,12.25,47.59359,-54.27349
2020-12-14 05:14:01+00:00,72.0,9.99,75.0,12.53,12.25,47.59359,-54.27349
2020-12-14 05:24:01+00:00,72.0,10.17,62.0,11.99,12.25,47.59359,-54.27349
2020-12-14 05:34:01+00:00,70.0,11.36,64.0,13.86,12.25,47.59359,-54.27349
2020-12-14 05:44:01+00:00,69.0,10.59,66.0,12.57,12.25,47.59359,-54.27349
2020-12-14 05:54:01+00:00,66.0,8.97,63.0,12.31,12.25,47.59359,-54.27349
2020-12-14 06:04:01+00:00,73.0,8.1,80.0,11.49,12.25,47.59359,-54.27349
2020-12-14 06:14:01+00:00,72.0,8.48,71.0,10.57,12.25,47.59359,-54.27349
2020-12-14 06:24:01+00:00,70.0,9.53,68.0,11.15,12.25,47.59359,-54.27349
2020-12-14 06:34:01+00:00,63.0,9.47,71.0,11.44,12.25,47.59359,-54.27349
2020-12-14 06:44:01+00:00,68.0,9.09,53.0,10.63,12.25,47.59359,-54.27349
2020-12-14 06:54:01+00:00,66.0,8.21,56.0,9.64,12.25,47.59359,-54.27349
2020-12-14 07:04:01+00:00,69.0,8.76,71.0,10.84,12.25,47.59359,-54.27349
2020-12-14 07:14:01+00:00,72.0,9.35,69.0,12.3,12.25,47.59359,-54.27349
2020-12-14 07:24:01+00:00,78.0,7.68,74.0,10.18,12.25,47.59359,-54.27349
2020-12-14 07:34:01+00:00,80.0,6.75,87.0,11.39,12.25,47.59359,-54.27349
2020-12-14 07:44:01+00:00,68.0,9.36,59.0,10.83,12.25,47.59359,-54.27349
2020-12-14 07:54:01+00:00,67.0,9.48,76.0,10.7,12.25,47.59359,-54.27349
2020-12-14 08:04:01+00:00,72.0,9.69,70.0,12.31,12.25,47.59359,-54.27349
2020-12-14 08:14:01+00:00,70.0,9.68,70.0,11.77,12.25,47.59359,-54.27349
2020-12-14 08:24:01+00:00,68.0,8.21,70.0,9.89,12.25,47.59359,-54.27349
2020-12-14 08:34:01+00:00,64.0,9.8,65.0,11.0,12.25,47.59359,-54.27349
2020-12-14 08:44:01+00:00,76.0,8.16,80.0,11.17,12.25,47.59359,-54.27349
2020-12-14 08:54:01+00:00,71.0,9.86,74.0,11.87,12.25,47.59359,-54.27349
2020-12-14 09:04:01+00:00,58.0,7.3,61.0,8.24,12.25,47.59359,-54.27349
2020-12-14 09:14:01+00:00,62.0,7.81,60.0,9.41,12.25,47.59359,-54.27349
2020-12-14 09:24:01+00:00,63.0,9.26,63.0,10.83,12.25,47.59359,-54.27349
2020-12-14 09:34:01+00:00,71.0,9.29,73.0,10.77,12.25,47.59359,-54.27349
2020-12-14 09:44:01+00:00,73.0,8.17,70.0,10.37,12.25,47.59359,-54.27349
2020-12-14 09:54:01+00:00,68.0,9.98,69.0,11.77,12.25,47.59359,-54.27349
2020-12-14 10:04:01+00:00,64.0,7.62,65.0,8.83,12.25,47.59359,-54.27349
2020-12-14 10:14:01+00:00,71.0,8.3,72.0,11.06,12.17,47.59359,-54.27349
2020-12-14 10:24:01+00:00,71.0,10.4,69.0,11.76,12.17,47.59359,-54.27349
2020-12-14 10:34:01+00:00,71.0,10.28,68.0,11.63,12.17,47.59359,-54.27349
2020-12-14 10:44:01+00:00,72.0,6.56,71.0,11.58,12.17,47.59359,-54.27349
2020-12-14 10:54:01+00:00,76.0,6.72,101.0,9.69,12.17,47.59359,-54.27349
2020-12-14 11:04:01+00:00,76.0,8.05,61.0,11.5,12.17,47.59359,-54.27349
2020-12-14 11:14:01+00:00,80.0,6.27,72.0,9.76,12.17,47.59359,-54.27349
2020-12-14 11:24:01+00:00,72.0,8.74,66.0,11.89,12.17,47.59359,-54.27349
2020-12-14 11:34:01+00:00,74.0,7.94,71.0,10.34,12.17,47.59359,-54.27349
2020-12-14 11:44:01+00:00,78.0,6.93,74.0,9.98,12.17,47.59359,-54.27349
2020-12-14 11:54:01+00:00,78.0,6.68,67.0,8.96,12.17,47.59359,-54.27349
2020-12-14 12:04:01+00:00,71.0,6.52,68.0,8.53,12.17,47.59359,-54.27349
2020-12-14 12:14:01+00:00,75.0,5.75,65.0,7.71,12.17,47.59359,-54.27349
2020-12-14 12:24:01+00:00,76.0,6.16,85.0,8.71,12.17,47.59359,-54.27349
2020-12-14 12:34:01+00:00,78.0,4.83,68.0,6.73,12.17,47.59359,-54.27349
2020-12-14 12:44:01+00:00,76.0,4.55,71.0,6.36,12.17,47.59359,-54.27349
2020-12-14 12:54:01+00:00,90.0,4.85,92.0,7.61,12.17,47.59359,-54.27349
2020-12-14 13:04:01+00:00,80.0,4.63,73.0,6.52,12.17,47.59359,-54.27349
2020-12-14 13:14:01+00:00,79.0,5.79,87.0,7.56,12.25,47.59359,-54.27349
2020-12-14 13:24:01+00:00,72.0,5.61,66.0,7.13,12.25,47.59359,-54.27349
2020-12-14 13:34:01+00:00,76.0,5.55,68.0,7.73,12.25,47.59359,-54.27349
2020-12-14 13:44:01+00:00,74.0,5.98,69.0,8.61,12.25,47.59359,-54.27349
2020-12-14 13:54:01+00:00,74.0,6.38,76.0,7.61,12.25,47.59359,-54.27349
2020-12-14 14:04:01+00:00,73.0,5.24,60.0,7.04,12.25,47.59359,-54.27349
2020-12-14 14:14:01+00:00,70.0,6.44,63.0,7.9,12.33,47.59359,-54.27349
2020-12-14 14:24:01+00:00,79.0,5.3,84.0,7.4,12.33,47.59359,-54.27349
2020-12-14 14:34:01+00:00,78.0,4.96,61.0,8.06,12.33,47.59359,-54.27349
2020-12-14 14:44:01+00:00,72.0,6.28,95.0,7.89,12.33,47.59359,-54.27349
2020-12-14 14:54:01+00:00,72.0,6.6,66.0,8.3,12.33,47.59359,-54.27349
2020-12-14 15:04:01+00:00,69.0,4.89,61.0,6.48,12.33,47.59359,-54.27349
2020-12-14 15:14:01+00:00,81.0,5.29,83.0,7.26,12.57,47.59359,-54.27349
2020-12-14 15:24:01+00:00,83.0,4.02,61.0,6.89,12.57,47.59359,-54.27349
2020-12-14 15:34:01+00:00,83.0,5.04,91.0,7.09,12.57,47.59359,-54.27349
2020-12-14 15:44:01+00:00,82.0,5.54,88.0,7.86,12.57,47.59359,-54.27349
2020-12-14 15:54:01+00:00,75.0,4.66,84.0,6.82,12.57,47.59359,-54.27349
2020-12-14 16:04:01+00:00,87.0,4.91,85.0,7.47,12.57,47.59359,-54.27349
2020-12-14 16:14:01+00:00,78.0,4.89,108.0,7.27,12.65,47.59359,-54.27349
2020-12-14 16:24:01+00:00,69.0,5.09,67.0,7.12,12.65,47.59359,-54.27349
2020-12-14 16:34:01+00:00,77.0,3.98,67.0,6.13,12.65,47.59359,-54.27349
2020-12-14 16:44:01+00:00,83.0,5.05,72.0,7.24,12.65,47.59359,-54.27349
2020-12-14 16:54:01+00:00,98.0,4.35,115.0,6.43,12.65,47.59359,-54.27349
2020-12-14 17:04:01+00:00,87.0,3.42,72.0,6.62,12.65,47.59359,-54.27349
2020-12-14 17:14:01+00:00,103.0,4.25,98.0,7.78,12.57,47.59359,-54.27349
2020-12-14 17:24:01+00:00,81.0,4.23,85.0,7.32,12.57,47.59359,-54.27349
2020-12-14 17:34:01+00:00,94.0,3.87,97.0,5.57,12.57,47.59359,-54.27349
2020-12-14 17:44:01+00:00,84.0,3.76,78.0,5.26,12.57,47.59359,-54.27349
2020-12-14 17:54:01+00:00,78.0,3.2,71.0,4.89,12.57,47.59359,-54.27349
2020-12-14 18:04:01+00:00,80.0,3.68,72.0,5.71,12.57,47.59359,-54.27349
2020-12-14 18:14:01+00:00,76.0,4.99,70.0,7.91,12.25,47.59359,-54.27349
2020-12-14 18:24:01+00:00,78.0,4.31,75.0,6.4,12.25,47.59359,-54.27349
2020-12-14 18:34:01+00:00,94.0,4.06,118.0,7.31,12.25,47.59359,-54.27349
2020-12-14 18:44:01+00:00,86.0,4.3,80.0,6.27,12.25,47.59359,-54.27349
2020-12-14 18:54:01+00:00,81.0,4.26,68.0,6.17,12.25,47.59359,-54.27349
2020-12-14 19:04:01+00:00,87.0,4.26,91.0,6.47,12.25,47.59359,-54.27349
2020-12-14 19:14:01+00:00,87.0,3.73,105.0,5.11,12.09,47.59359,-54.27349
2020-12-14 19:24:01+00:00,93.0,4.04,122.0,5.84,12.09,47.59359,-54.27349
2020-12-14 19:34:01+00:00,90.0,3.63,111.0,5.34,12.09,47.59359,-54.27349
2020-12-14 19:44:01+00:00,90.0,4.14,94.0,6.41,12.09,47.59359,-54.27349
2020-12-14 19:54:01+00:00,83.0,3.94,82.0,5.57,12.09,47.59359,-54.27349
2020-12-14 20:04:01+00:00,97.0,3.57,103.0,5.47,12.09,47.59359,-54.27349
2020-12-14 20:14:01+00:00,101.0,4.02,84.0,6.03,12.09,47.59359,-54.27349
2020-12-14 20:24:01+00:00,100.0,3.83,91.0,6.26,12.09,47.59359,-54.27349
2020-12-14 20:34:01+00:00,102.0,4.68,108.0,6.41,12.09,47.59359,-54.27349
2020-12-14 20:44:01+00:00,99.0,4.92,95.0,7.48,12.09,47.59359,-54.27349
2020-12-14 20:54:01+00:00,85.0,3.38,107.0,5.23,12.09,47.59359,-54.27349
2020-12-14 21:04:01+00:00,97.0,3.44,132.0,6.2,12.09,47.59359,-54.27349
2020-12-14 21:14:01+00:00,98.0,3.2,84.0,4.61,12.25,47.59359,-54.27349
2020-12-14 21:24:01+00:00,103.0,3.77,102.0,6.0,12.25,47.59359,-54.27349
2020-12-14 21:34:01+00:00,97.0,3.37,65.0,4.93,12.25,47.59359,-54.27349
2020-12-14 21:44:01+00:00,103.0,3.56,94.0,5.77,12.25,47.59359,-54.27349
2020-12-14 21:54:01+00:00,100.0,2.6,95.0,3.96,12.25,47.59359,-54.27349
2020-12-14 22:04:01+00:00,116.0,4.76,115.0,5.97,12.25,47.59359,-54.27349
2020-12-14 22:14:01+00:00,112.0,3.95,127.0,5.71,12.09,47.59359,-54.27349
2020-12-14 22:24:01+00:00,116.0,4.0,88.0,5.5,12.09,47.59359,-54.27349
2020-12-14 22:34:01+00:00,105.0,3.33,123.0,4.75,12.09,47.59359,-54.27349
2020-12-14 22:44:01+00:00,112.0,3.48,129.0,6.05,12.09,47.59359,-54.27349
2020-12-14 22:54:01+00:00,95.0,3.68,112.0,5.71,12.09,47.59359,-54.27349
2020-12-14 23:04:01+00:00,101.0,2.97,120.0,4.83,12.09,47.59359,-54.27349
2020-12-14 23:14:01+00:00,107.0,2.39,129.0,4.52,12.09,47.59359,-54.27349
2020-12-14 23:24:01+00:00,108.0,3.04,100.0,5.32,12.09,47.59359,-54.27349
2020-12-14 23:34:01+00:00,105.0,3.63,126.0,6.0,12.09,47.59359,-54.27349
2020-12-14 23:44:01+00:00,96.0,3.49,97.0,4.45,12.09,47.59359,-54.27349
2020-12-14 23:54:01+00:00,104.0,2.89,103.0,5.29,12.09,47.59359,-54.27349
